Location: Newark
(54.8972°N, 99.8189°W)
Time: 12:39:09
(UTC+00:00)

Transit 2A - Pass Details

Date: 20 November 2019
Orbit: 602 x 957 km, 66.7° (Epoch: 14 December)

Event Time Altitude Azimuth Distance (km) Brightness Sun altitude
Rises 01:31:59 0° 317° (NW) 2,895 9.6 -25.5°
Reaches altitude 10° 01:34:22 10° 324° (NW) 1,969 8.6 -25.9°
Enters shadow 01:36:54 29° 347° (NNW) 1,114 6.9 -26.2°
